#timestamp,LO_Frequency,Hit,StdDev 
1579140015.2,286047001.0,N
1579140035.0,286046999.8,N
1579140035.9,286046999.8,N
1579140055.8,286047001.9,N
1579140075.6,286047002.5,N
1579140095.4,286047001.3,N
1579140115.3,286046999.7,N
1579140135.1,286046998.4,N
1579140155.9,286046998.8,N
1579140175.7,286046998.2,N
1579140195.5,286046998.7,N
1579140215.4,286046998.5,N
1579140235.2,286046998.1,N
1579140255.1,286047001.3,N
1579140256.0,286047001.3,N
1579140275.8,286047003.8,N
1579140295.6,286047005.9,Y
1579140315.5,286047002.8,P
1579140335.3,286047000.5,N
1579140355.2,286047002.4,N
1579140375.9,286047002.1,N
1579140395.7,286047002.7,N
1579140415.6,286047002.2,N
1579140435.4,286047002.5,N
1579140455.2,286047001.4,N
1579140475.1,286047000.0,N
1579140476.0,286047000.0,N
1579140495.8,286046998.8,N
1579140515.8,286046998.9,N
1579140535.7,286046999.8,N
1579140555.5,286047000.6,N
1579140575.3,286047002.1,N
1579140595.2,286047001.6,N
1579140615.0,286047003.8,N
1579140615.9,286047003.8,N
1579140635.7,286047001.6,N
1579140655.6,286047005.4,Y
1579140675.4,286047003.4,P
1579140695.3,286047003.9,P
1579140715.1,286047002.6,N
1579140735.8,286047000.0,N
1579140755.7,286047001.9,N
1579140775.5,286047003.8,N
1579140795.4,286047004.3,Y
1579140815.2,286046999.9,P
1579140835.0,286047002.0,N
1579140835.9,286047002.0,N
1579140855.8,286047000.1,N
1579140875.6,286046999.8,N
1579140895.5,286047002.1,N
1579140915.3,286047001.6,N
1579140935.1,286047002.6,N
1579140955.9,286047000.2,N
1579140975.7,286047000.0,N
1579140995.6,286047001.2,N
1579141015.4,286046998.5,N
1579141035.2,286046996.5,N
1579141055.1,286046998.4,N
1579141056.0,286046998.4,N
1579141075.8,286046998.9,N
1579141095.6,286046996.5,N
1579141115.5,286046998.8,N
1579141135.3,286047001.2,N
1579141155.2,286046998.5,N
1579141175.9,286046999.2,N
1579141195.7,286046998.9,N
1579141215.6,286046999.9,N
1579141235.4,286047001.1,N
1579141255.2,286047000.5,N
1579141275.1,286047000.2,N
1579141276.0,286047000.2,N
1579141295.8,286047001.9,N
1579141315.7,286047003.8,N
1579141335.5,286047002.6,N
1579141355.3,286047000.0,N
1579141375.2,286047000.0,N
1579141395.0,286047000.3,N
1579141395.9,286047000.3,N
1579141415.7,286046999.8,N
1579141435.6,286047001.0,N
1579141455.4,286047000.9,N
1579141475.3,286047000.5,N
1579141495.1,286047002.4,N
1579141496.0,286047002.4,N
1579141515.8,286047000.7,N
1579141535.7,286046996.6,N
1579141555.5,286046998.1,N
1579141575.3,286047000.1,N
1579141595.2,286047001.8,N
1579141615.0,286047000.5,N
1579141615.9,286047000.5,N
1579141635.8,286047000.1,N
1579141655.6,286047002.7,N
1579141675.4,286046999.7,N
1579141695.3,286047002.8,N
1579141715.1,286047000.0,N
1579141735.9,286047002.3,N
1579141755.7,286047000.7,N
1579141775.5,286047000.6,N
1579141795.4,286046998.5,N
1579141815.2,286046998.5,N
1579141835.0,286047000.0,N
1579141836.0,286047000.0,N
1579141855.8,286046998.7,N
1579141875.6,286047000.2,N
1579141895.5,286047000.8,N
1579141915.3,286047002.8,N
1579141935.1,286046999.8,N
1579141955.9,286047002.7,N
1579141975.7,286047002.2,N
1579141995.6,286047004.4,N
1579142015.4,286046999.9,N
1579142035.2,286047002.3,N
1579142055.1,286046998.7,N
1579142056.0,286046998.7,N
1579142075.8,286046997.7,N
1579142095.6,286046996.4,N
1579142115.5,286046995.3,N
1579142135.3,286046997.3,N
1579142155.2,286046999.4,N
1579142175.9,286046998.6,N
1579142195.7,286047002.5,N
1579142215.6,286047004.4,N
1579142235.4,286047001.3,N
1579142255.3,286047002.0,N
1579142275.1,286047001.2,N
1579142276.0,286047001.2,N
1579142295.8,286047000.8,N
1579142315.7,286047000.1,N
1579142335.5,286047002.5,N
1579142355.3,286047002.3,N
1579142375.2,286047001.9,N
1579142395.0,286047003.8,N
1579142395.9,286047003.8,N
1579142415.8,286047003.3,N
1579142435.6,286047002.6,N
1579142455.4,286047002.2,N
1579142475.3,286047000.0,N
1579142495.1,286046999.8,N
1579142515.8,286047001.3,N
1579142535.7,286047003.2,N
1579142555.5,286047003.9,N
1579142575.4,286047001.5,N
1579142595.2,286046999.7,N
1579142615.0,286047001.0,N
1579142615.9,286047001.0,N
1579142635.8,286047002.6,N
1579142655.6,286047003.0,N
1579142675.5,286047003.1,N
1579142695.3,286047005.7,Y
1579142715.1,286047001.3,P
1579142735.9,286047002.0,P
1579142755.7,286047001.9,P
1579142775.5,286047000.4,N
1579142795.4,286047001.6,N
1579142815.2,286047001.3,N
1579142835.1,286047002.7,Y
1579142836.0,286047002.7,P
1579142855.8,286046998.2,N
1579142875.6,286047001.1,N
1579142895.5,286046999.8,N
1579142915.3,286047002.5,N
1579142935.1,286047002.8,N
1579142955.9,286047001.1,N
1579142975.7,286047001.1,N
1579142995.6,286046999.0,N
1579143015.4,286046998.9,N
1579143035.2,286046998.6,N
1579143055.1,286046998.4,N
1579143056.0,286046998.4,N
1579143075.8,286046999.2,N
1579143095.7,286046999.0,N
1579143115.5,286046999.0,N
1579143135.3,286046998.4,N
1579143155.2,286046998.5,N
1579143175.9,286047002.4,N
1579143195.7,286047001.9,N
1579143215.6,286046999.7,N
1579143235.4,286046999.0,N
1579143255.3,286046998.7,N
1579143275.1,286046999.2,N
1579143276.0,286046999.2,N
1579143295.8,286046997.5,N
1579143315.7,286046997.5,N
1579143335.5,286046995.8,N
1579143355.3,286046996.8,N
1579143375.2,286047000.7,N
1579143395.0,286046996.5,N
1579143395.9,286046996.5,N
1579143415.8,286046995.2,N
1579143435.6,286046995.4,N
1579143455.4,286046997.5,N
1579143475.3,286046995.3,N
1579143495.1,286046996.2,N
1579143515.9,286046995.2,N
1579143535.7,286046996.1,N
1579143555.5,286046997.3,N
1579143575.4,286046996.5,N
1579143595.2,286047000.5,N
